Flag for Japan Weather past 2 weeks in Yokosuka, Japan

Now
72 °F

Partly sunny.


Feels Like: 71 °F
Forecast: 70 / 76 °F
Wind: 9 mph from North

Location: Tokyo International Airport

Current Time: Aug 31, 2014 at 7:49:18 AM

Latest Report: Aug 31, 2014 at 7:30 AM


Visibility: N/A

Pressure: 29.92 "Hg

Humidity: 83%

Dew point: 66 °F

Location of YokosukaLocation

Historic Weather in Yokosuka — Graph

°F

Yokosuka temperature yesterday

Maximum temperature yesterday: 77 °F (at 12:00 PM)
Minimum temperature yesterday: 68 °F (at 6:00 AM)
Average temperature yesterday: 72 °F

Past Weeks' High & Low Weather Summary

 TemperatureHumidityPressure
High91 °F (Aug 19, 2:00 PM)100% (Aug 28, 5:30 AM)30.01 "Hg (Aug 28, 5:30 AM)
Low68 °F (Aug 27, 7:30 AM)59% (Aug 17, 3:00 PM)29.71 "Hg (Aug 26, 1:30 PM)
Average79 °F80%29.88 "Hg
* Reported Aug 16 6:00 AM — Aug 31 6:30 AM, Yokosuka, Weather by CustomWeather, © 2014

Note: Actual official high and low records may vary slightly from our data, if they occured in-between our weather recording intervals... More about our weather records

Advertising

Yokosuka weather history for previous 24 hours

 ConditionsComfort  
Time TempWeatherWind HumidityBarometerVisibility
6:30 AM
Aug 31
72 °FScattered clouds.12 mph83%29.92 "HgN/A
5:30 AM72 °FScattered clouds.10 mph78%29.92 "HgN/A
5:00 AM72 °FPassing clouds.9 mph78%29.92 "HgN/A
4:30 AM70 °FPassing clouds.9 mph83%29.92 "HgN/A
4:00 AM72 °FPassing clouds.8 mph78%29.92 "HgN/A
3:30 AM72 °FPassing clouds.9 mph78%29.92 "HgN/A
3:00 AM72 °FPassing clouds.8 mph78%29.92 "HgN/A
2:30 AM72 °FPassing clouds.9 mph78%29.92 "HgN/A
2:00 AM72 °FPassing clouds.10 mph83%29.92 "HgN/A
1:30 AM72 °FPartly cloudy.10 mph83%29.92 "HgN/A
1:00 AM72 °FPartly cloudy.9 mph83%29.92 "HgN/A
12:30 AM72 °FPassing clouds.7 mph83%29.92 "HgN/A
12:00 AM72 °FPassing clouds.7 mph83%29.92 "HgN/A
11:30 PM
Aug 30
72 °FPassing clouds.9 mph83%29.92 "HgN/A
11:00 PM72 °FPassing clouds.9 mph83%29.92 "HgN/A
10:30 PM72 °FPassing clouds.7 mph83%29.92 "HgN/A
10:00 PM72 °FPassing clouds.10 mph83%29.92 "HgN/A
9:30 PM72 °FPassing clouds.9 mph83%29.92 "HgN/A
9:00 PM72 °FPassing clouds.10 mph83%29.92 "HgN/A
8:30 PM72 °FPassing clouds.10 mph83%29.92 "HgN/A
8:00 PM72 °FPassing clouds.15 mph83%29.92 "HgN/A
7:30 PM73 °FPartly cloudy.17 mph78%29.89 "HgN/A
7:00 PM73 °FPartly cloudy.16 mph74%29.89 "HgN/A
6:30 PM73 °FPassing clouds.14 mph74%29.89 "HgN/A
6:00 PM73 °FPartly sunny.17 mph78%29.89 "HgN/A
5:30 PM75 °FPartly sunny.16 mph74%29.86 "HgN/A
5:00 PM75 °FPartly sunny.14 mph74%29.86 "HgN/A
4:30 PM75 °FPartly sunny.17 mph74%29.86 "HgN/A
4:00 PM75 °FPartly sunny.15 mph74%29.89 "HgN/A
3:30 PM75 °FPartly sunny.16 mph74%29.89 "HgN/A
3:00 PM75 °FPartly sunny.16 mph74%29.89 "HgN/A
2:30 PM75 °FPartly sunny.18 mph74%29.89 "HgN/A
2:00 PM75 °FBroken clouds.21 mph78%29.89 "HgN/A
1:30 PM77 °FBroken clouds.12 mph69%29.89 "HgN/A
1:00 PM77 °FBroken clouds.10 mph74%29.89 "HgN/A
12:30 PM75 °FBroken clouds.9 mph74%29.89 "HgN/A
12:00 PM77 °FBroken clouds.8 mph69%29.89 "HgN/A
11:30 AM75 °FBroken clouds.12 mph74%29.89 "HgN/A
11:00 AM73 °FBroken clouds.14 mph74%29.92 "HgN/A
10:30 AM73 °FPartly sunny.10 mph78%29.92 "HgN/A
10:00 AM73 °FBroken clouds.13 mph78%29.92 "HgN/A
9:30 AM72 °FBroken clouds.13 mph83%29.95 "HgN/A
9:00 AM72 °FPartly sunny.13 mph88%29.95 "HgN/A
8:30 AM70 °FBroken clouds.13 mph88%29.95 "HgN/A
8:00 AM68 °FSprinkles. Partly sunny.12 mph94%29.95 "HgN/A
7:30 AM68 °FSprinkles. Broken clouds.12 mph94%29.95 "HgN/A
7:00 AM68 °FSprinkles. Broken clouds.10 mph94%29.95 "HgN/A
Weather by CustomWeather, © 2014

See weather overviewHow to use our weather pages